Карточка аэропорта UNEE

Внимание!
Информация на этой странице в стадии наполнения.
Если вы не увидели какой-то информации, или заметили неточность - пожалуйста сообщите нам!
Спасибо!
Команда RU-STAFF
Название аэропортаКемерово
Название аэропорта (англ.)Kemerovo
Превышение873 ft. (266.1 m.)
Координаты55°16.2', 86°6.6'
Высота перехода500m
Эшелон переходаQFE>=760mm:FL030; QFE<=759=>733mm:FL040; QFE<=732mm:FL050
Коды ответчика5260-5267
Зона ОрВДНовосибирск РПИ (UNNT)
Данные METARUNEE 140100Z 33004MPS CAVOK 21/14 Q1012 R23/CLRD60 NOSIG RMK QFE736
Проноз погоды (TAF)UNEE 132000Z 1321/1421 01003G08MPS 8000 SCT040CB TX29/1409Z TN16/1322Z TEMPO 1321/1402 BKN002 TEMPO 1403/1412 05005G10MPS
NOTAMshow/hide NOTAM
AWOS   TABLE

Информация о ВПП

ВПП Длина ВПП (м.) Покрытие Курс ВПП Частота ILS
053200Цементобетон46 
233200Цементобетон226109.1

Диспетчерские позиции

Позывной Наименование органа УВД Частота
UNEE_APPКемерово-Подход125.5
UNEE_TWRКемерово-Старт118.3



Спутниковое изображение